Date,TemperatureHighF,TemperatureAvgF,TemperatureLowF,DewpointHighF,DewpointAvgF,DewpointLowF,HumidityHigh,HumidityAvg,HumidityLow,PressureMaxIn,PressureMinIn,WindSpeedMaxMPH,WindSpeedAvgMPH,GustSpeedMaxMPH,PrecipitationSumIn
2012-1-1,41.3,34.5,27.5,39.0,32.5,26.0,95,92,87,29.87,29.47,26,12,0,0.07
2012-1-2,28.3,23.0,18.0,26.0,18.5,13.0,91,83,73,30.28,29.87,23,14,0,0.00
2012-1-3,23.5,19.3,14.9,17.0,12.8,10.0,87,76,65,30.38,30.12,13,7,0,0.00
2012-1-4,34.7,26.4,19.3,28.0,21.2,12.0,89,81,72,30.11,29.88,14,6,0,0.00
2012-1-5,42.3,33.6,25.3,36.0,29.8,23.0,94,86,73,29.99,29.66,14,5,0,0.00
2012-1-6,49.2,43.5,39.3,41.0,37.3,36.0,88,79,70,29.70,29.61,18,8,0,0.00
2012-1-7,42.0,35.5,28.1,36.0,29.2,24.0,87,78,68,30.20,29.68,17,7,0,0.00
2012-1-8,37.9,28.7,19.1,31.0,24.9,17.0,93,86,73,30.36,30.21,12,3,0,0.00
2012-1-9,40.7,33.2,25.8,34.0,29.6,24.0,95,87,70,30.26,29.87,22,8,0,0.01
2012-1-10,46.3,35.8,24.9,35.0,31.0,23.0,96,83,65,30.03,29.81,13,4,0,0.00
2012-1-11,52.0,39.0,26.9,37.0,32.4,25.0,96,78,52,29.81,29.49,8,2,0,0.00
2012-1-12,36.5,33.3,29.6,35.0,31.7,29.0,97,93,83,29.49,29.31,6,2,0,0.14
2012-1-13,30.0,24.7,20.6,29.0,22.9,19.0,97,92,88,29.98,29.34,18,9,0,0.00
2012-1-14,22.4,19.2,11.4,20.0,17.2,9.0,95,92,86,30.25,29.98,11,3,0,0.01
2012-1-15,23.6,18.9,16.2,18.0,15.1,13.0,92,85,77,30.41,30.19,13,6,0,0.00
2012-1-16,41.8,31.1,16.9,36.0,27.3,13.0,96,86,78,30.19,29.75,14,5,0,0.21
2012-1-17,36.3,30.3,20.6,36.0,29.1,16.0,97,95,83,30.11,29.51,24,10,0,0.15
2012-1-18,23.2,20.1,16.5,19.0,15.7,13.0,88,83,75,30.27,29.91,14,6,0,0.00
2012-1-19,26.8,14.0,-0.9,26.0,9.0,-4.0,95,81,68,30.19,29.70,23,10,0,0.00
2012-1-20,16.3,11.4,3.4,12.0,8.0,0.0,91,86,77,30.30,30.17,8,2,0,0.00
2012-1-21,23.4,13.1,3.8,15.0,8.8,0.0,91,83,69,30.31,30.18,8,2,0,0.09
2012-1-22,35.4,23.3,13.4,35.0,20.6,9.0,97,89,81,30.25,29.66,16,9,0,0.04
2012-1-23,43.4,37.7,30.1,43.0,36.5,25.0,98,95,82,29.77,29.37,23,12,0,0.55
2012-1-24,30.9,29.3,28.3,27.0,25.2,24.0,92,84,81,30.34,29.78,20,10,0,0.00
2012-1-25,33.9,30.7,27.7,29.0,26.8,24.0,89,85,80,30.39,30.15,8,3,0,0.00
2012-1-26,35.1,31.3,28.1,33.0,29.8,26.0,97,93,89,30.14,29.59,11,4,0,0.02
2012-1-27,39.2,34.2,31.2,32.0,29.5,26.0,97,83,61,29.94,29.59,19,7,0,0.00
2012-1-28,33.3,29.9,27.0,32.0,25.7,19.0,97,85,70,30.02,29.67,22,11,0,0.01
2012-1-29,28.6,23.6,5.1,23.0,17.6,1.0,93,78,68,30.21,29.93,17,6,0,0.00
2012-1-30,41.9,22.7,1.8,37.0,18.4,-2.0,94,84,71,30.22,29.88,13,4,0,0.01
2012-1-31,51.9,46.4,41.3,46.0,41.0,36.0,92,81,72,29.88,29.75,23,11,0,0.00
2012-2-1,44.2,37.7,34.7,42.0,34.0,32.0,91,86,79,30.15,29.80,14,6,0,0.00
2012-2-2,41.3,35.8,32.5,34.0,32.3,31.0,92,87,76,30.41,30.15,10,3,0,0.00
2012-2-3,35.9,34.4,31.1,34.0,31.4,28.0,93,89,81,30.49,30.41,6,2,0,0.00
2012-2-4,44.1,33.5,27.1,31.0,27.6,25.0,91,80,51,30.41,30.18,7,3,0,0.00
2012-2-5,37.6,29.4,23.6,31.0,25.9,22.0,94,87,73,30.30,30.17,10,4,0,0.00
2012-2-7,28.6,24.2,24.8,18.0,6.7,-99.9,68,60,63,30.39,30.38,6,-79,0,0.00
2012-2-8,33.1,24.8,16.3,22.0,16.9,12.0,92,72,56,30.39,30.25,16,5,0,0.00
2012-2-9,34.9,28.9,23.2,25.0,20.7,18.0,83,72,53,30.24,30.09,18,8,0,0.00
2012-2-11,19.6,17.1,12.5,17.0,11.0,-99.9,89,82,79,30.29,30.22,14,8,0,0.00
2012-2-12,27.5,22.8,18.2,19.0,16.0,12.0,81,75,69,30.25,30.15,19,10,0,0.00
2012-2-13,32.9,27.8,21.8,23.0,17.8,15.0,81,66,48,30.15,29.92,14,8,0,0.01
2012-2-14,31.9,29.5,26.5,31.0,27.6,21.0,95,92,73,30.00,29.84,10,4,0,0.00
2012-2-15,42.9,35.4,31.7,36.0,32.3,30.0,95,88,76,30.12,30.00,13,5,0,0.05
2012-2-16,40.4,35.6,31.2,37.0,33.2,28.0,97,91,76,30.05,29.92,16,4,0,0.29
2012-2-17,39.7,32.8,25.0,31.0,27.6,22.0,95,82,52,30.12,29.94,17,5,0,0.00
2012-2-18,31.8,27.9,20.4,30.0,22.8,17.0,97,82,67,30.26,29.94,20,9,0,0.01
2012-2-19,36.8,25.3,16.3,24.0,19.8,14.0,92,80,57,30.26,30.18,8,2,0,0.01
2012-2-20,41.6,29.4,18.8,28.0,22.5,17.0,94,77,51,30.36,30.03,12,4,0,0.00
2012-2-21,37.1,33.7,30.3,37.0,30.0,25.0,100,86,75,30.03,29.57,18,8,0,0.04
2012-2-22,41.7,36.1,31.3,35.0,29.9,25.0,95,79,60,29.61,29.40,21,9,0,0.01
2012-2-23,38.1,33.3,25.4,33.0,27.7,23.0,95,81,60,29.62,29.42,9,3,0,0.01
2012-2-24,33.2,30.9,28.8,31.0,28.6,26.0,96,91,80,29.78,29.40,21,11,0,0.12
2012-2-25,30.2,27.9,25.5,28.0,23.0,19.0,93,82,70,30.32,29.78,18,9,0,0.02
2012-2-26,37.9,30.6,20.6,28.0,22.7,17.0,86,73,60,30.36,30.02,18,7,0,0.02
2012-2-27,38.8,32.2,19.2,32.0,24.9,17.0,90,75,64,30.46,30.02,23,11,0,0.00
2012-2-28,38.9,29.7,16.5,30.0,24.0,14.0,94,80,60,30.50,30.05,18,5,0,0.00
2012-2-29,42.3,35.2,32.3,41.0,33.6,30.0,97,93,80,30.05,29.42,19,3,0,0.89
2012-3-1,38.4,34.6,32.2,35.0,32.5,31.0,97,92,80,29.86,29.53,0,0,0,0.10
2012-3-2,38.7,35.8,32.6,37.0,33.8,31.0,96,92,85,29.85,29.13,0,0,0,0.41
2012-3-3,33.0,30.1,22.9,32.0,28.1,21.0,96,91,80,29.76,29.28,0,0,0,0.00
2012-3-4,27.9,23.1,12.1,23.0,19.9,10.0,95,88,79,29.99,29.77,0,0,0,0.03
2012-3-5,28.1,22.5,15.5,21.0,16.3,12.0,88,77,66,30.37,29.99,0,0,0,0.00
2012-3-6,62.4,43.2,28.3,44.0,31.5,21.0,78,65,48,30.33,29.90,0,0,0,0.00
2012-3-7,62.2,58.2,53.4,50.0,42.1,34.0,66,56,45,29.99,29.73,0,0,0,0.00
2012-3-8,61.8,40.1,30.5,52.0,34.1,24.0,95,80,62,30.10,29.66,0,0,0,0.29
2012-3-9,35.2,28.3,20.0,27.0,18.8,13.0,89,68,52,30.56,30.07,0,0,0,0.00
2012-3-10,51.1,37.9,20.9,32.0,22.7,14.0,90,56,38,30.55,30.17,0,0,0,0.00
2012-3-11,60.8,50.8,40.0,38.0,31.9,29.0,71,50,30,30.27,30.12,0,0,0,0.00
2012-3-12,62.8,52.8,47.8,58.0,47.4,36.0,96,83,52,30.12,29.68,0,0,0,0.57
2012-3-13,56.4,48.6,36.2,45.0,39.4,32.0,95,73,47,30.09,29.79,0,0,0,0.00
2012-3-14,78.2,58.3,35.5,61.0,45.9,30.0,88,65,38,30.09,29.91,0,0,0,0.00
2012-3-15,69.7,62.4,50.0,63.0,58.1,49.0,97,86,69,29.98,29.90,0,0,0,0.00
2012-3-16,73.7,58.0,48.6,64.0,55.3,48.0,98,91,66,30.08,29.97,0,0,0,0.01
2012-3-17,77.4,65.5,51.6,59.0,55.6,51.0,97,73,47,30.11,29.99,0,0,0,0.00
2012-3-18,74.5,63.8,52.0,60.0,56.2,50.0,96,77,57,30.05,29.96,0,0,0,0.00
2012-3-19,77.7,67.1,53.5,64.0,59.2,52.0,96,76,57,30.02,29.93,0,0,0,0.00
2012-3-20,81.8,70.9,61.3,61.0,58.2,55.0,86,66,41,30.05,29.95,14,3,0,0.00
2012-3-21,82.7,71.1,59.8,62.0,57.2,54.0,83,63,43,30.11,30.01,16,4,0,0.00
2012-3-22,83.4,68.5,57.3,61.0,57.8,53.0,87,71,43,30.09,30.00,18,4,0,0.00
2012-3-23,62.6,58.8,55.5,60.0,57.2,54.0,97,94,85,30.02,29.81,12,5,0,0.59
2012-3-24,64.0,57.0,52.5,57.0,53.7,51.0,100,89,75,29.88,29.78,7,3,0,0.00
2012-3-25,67.2,55.6,41.9,57.0,48.3,34.0,96,78,50,30.14,29.87,16,6,0,0.00
2012-3-26,46.3,37.0,29.0,33.0,24.6,20.0,81,62,40,30.42,30.15,14,7,0,0.00
2012-3-27,60.2,42.7,32.0,43.0,25.2,15.0,64,51,34,30.37,29.75,22,10,0,0.00
2012-3-28,62.5,52.9,43.8,50.0,42.2,34.0,83,67,55,30.01,29.68,28,13,0,0.00
2012-3-29,46.2,38.8,30.6,36.0,31.4,27.0,90,75,62,30.16,30.00,15,6,0,0.00
2012-3-30,35.6,33.5,31.8,34.0,30.9,28.0,95,90,80,30.08,29.82,18,7,0,0.56
2012-3-31,43.6,36.8,33.5,38.0,33.7,32.0,95,88,76,30.05,29.89,9,4,0,0.00
2012-4-1,58.6,47.5,37.0,48.0,41.7,34.0,93,81,60,29.89,29.70,8,3,0,0.00
2012-4-2,56.3,47.8,37.5,42.0,38.3,34.0,90,71,54,30.03,29.83,18,10,0,0.00
2012-4-3,63.1,49.9,41.1,53.0,43.8,37.0,95,80,66,30.00,29.84,15,6,0,0.49
2012-4-4,59.5,47.0,31.4,42.0,34.0,27.0,94,64,29,29.99,29.89,13,6,0,0.00
2012-4-5,49.6,40.6,32.7,33.0,29.9,28.0,85,67,46,30.18,29.96,16,6,0,0.00
2012-4-6,58.5,43.0,29.7,34.0,28.9,26.0,87,61,31,30.34,30.19,8,4,0,0.00
2012-4-7,62.7,46.7,29.1,39.0,32.8,27.0,91,63,31,30.31,30.09,12,3,0,0.00
2012-4-8,56.5,49.7,41.5,45.0,35.3,29.0,91,61,36,30.14,30.02,23,10,0,0.02
2012-4-9,54.3,45.4,36.5,40.0,30.3,21.0,93,60,28,30.02,29.86,25,10,0,0.00
2012-4-10,39.3,36.7,33.3,32.0,26.8,23.0,85,68,55,30.07,29.92,18,10,0,0.00
2012-4-11,54.6,42.3,30.1,32.0,29.0,26.0,84,62,34,30.24,30.07,15,6,0,0.00
2012-4-12,54.0,41.9,29.2,37.0,31.4,26.0,90,68,44,30.28,30.17,12,5,0,0.00
2012-4-13,62.7,48.8,28.4,39.0,33.3,26.0,94,60,33,30.24,30.05,11,4,0,0.00
2012-4-14,62.3,56.7,50.5,55.0,47.7,33.0,92,73,44,30.05,29.84,13,5,0,0.00
2012-4-15,71.4,63.1,55.7,63.0,59.2,54.0,97,88,73,29.84,29.62,19,6,0,0.67
2012-4-16,65.2,54.4,38.5,62.0,48.1,33.0,95,79,69,30.12,29.46,33,16,0,0.56
2012-4-17,50.9,40.2,32.3,37.0,32.1,29.0,89,74,51,30.40,30.13,11,5,0,0.00
2012-4-18,65.3,48.5,31.2,50.0,39.1,28.0,93,72,49,30.33,29.92,17,4,0,0.00
2012-4-19,65.2,55.5,46.3,55.0,50.8,45.0,96,84,63,29.96,29.76,13,4,0,0.10
2012-4-20,49.4,42.9,40.0,48.0,41.3,36.0,97,94,86,29.97,29.65,21,8,0,0.18
2012-4-21,53.3,42.5,31.8,37.0,30.6,25.0,96,67,37,30.05,29.96,13,5,0,0.01
2012-4-22,54.4,42.2,30.6,32.0,28.7,26.0,87,62,36,30.08,30.01,18,6,0,0.00
2012-4-23,55.6,43.5,30.3,30.0,24.5,18.0,79,50,29,30.05,29.72,28,11,0,0.00
2012-4-24,58.8,48.2,37.8,31.0,26.5,19.0,65,44,30,29.72,29.63,23,11,0,0.00
2012-4-25,61.3,47.4,33.2,48.0,37.1,27.0,92,70,39,29.80,29.69,15,4,0,0.06
2012-4-26,51.7,46.1,34.6,48.0,39.0,22.0,96,78,46,30.14,29.63,22,9,0,0.00
2012-4-27,52.6,40.2,26.3,34.0,26.7,22.0,86,61,36,30.28,30.15,15,6,0,0.00
2012-4-28,47.0,42.2,33.2,33.0,27.9,21.0,83,58,43,30.26,30.15,18,7,0,0.00
2012-4-29,60.5,46.7,26.1,40.0,30.6,23.0,93,58,31,30.36,30.14,16,6,0,0.03
2012-4-30,53.4,47.8,41.6,51.0,44.2,37.0,94,87,72,30.18,29.88,21,5,0,0.38
2012-5-1,61.1,53.4,47.5,53.0,48.6,46.0,94,84,72,30.05,29.89,13,4,0,0.00
2012-5-2,75.7,62.7,50.3,67.0,57.7,49.0,98,85,63,29.92,29.74,24,7,0,0.15
2012-5-3,80.2,69.1,61.9,70.0,63.4,59.0,95,82,63,29.91,29.78,21,4,0,0.21
2012-5-4,69.9,64.3,56.9,67.0,62.2,54.0,98,92,88,30.02,29.84,14,5,0,0.10
2012-5-5,59.0,54.1,49.8,56.0,49.1,39.0,93,83,63,30.10,29.97,15,7,0,0.07
2012-5-6,62.5,55.1,49.3,56.0,48.5,40.0,94,79,67,30.11,29.89,20,6,0,0.08
2012-5-7,54.8,52.4,48.1,54.0,50.1,45.0,96,92,77,29.94,29.81,16,5,0,0.08
2012-5-8,64.6,51.7,43.9,57.0,47.7,43.0,98,88,54,29.84,29.80,12,4,0,0.04
2012-5-9,59.8,51.8,45.6,51.0,44.2,36.0,95,77,49,29.90,29.78,19,7,0,0.02
2012-5-10,64.4,50.5,36.6,43.0,38.3,34.0,91,66,39,30.01,29.90,16,6,0,0.02
2012-5-11,71.4,56.2,38.6,49.0,40.6,36.0,91,61,32,30.12,30.02,16,5,0,0.01
2012-5-12,66.4,60.3,54.7,58.0,51.9,40.0,86,74,52,30.20,30.06,10,3,0,0.01
2012-5-13,72.6,60.3,50.2,41.0,36.5,31.0,60,43,23,30.24,30.08,10,4,0,0.01
2012-5-14,72.5,57.9,39.8,49.0,40.9,36.0,90,58,29,30.09,29.97,10,3,0,0.00
2012-5-15,77.1,64.4,46.1,55.0,46.7,-99.9,92,59,37,29.97,29.74,18,-8,0,0.05
2012-5-16,63.0,52.8,41.3,53.0,39.9,36.0,92,64,40,30.12,29.88,17,6,0,0.11
2012-5-17,69.9,54.6,36.8,46.0,39.1,34.0,93,60,34,30.21,30.07,7,2,0,0.02
2012-5-18,79.4,64.6,48.4,53.0,46.2,42.0,79,54,32,30.11,29.99,7,3,0,0.01
2012-5-19,85.6,69.1,46.9,63.0,52.1,45.0,93,58,28,30.08,30.00,9,2,0,0.00
2012-5-20,87.3,74.2,62.1,67.0,59.0,51.0,81,60,42,30.05,29.87,11,3,0,0.03
2012-5-21,66.7,58.6,51.8,60.0,51.8,43.0,94,79,52,30.07,29.93,16,7,0,0.02
2012-5-22,71.9,57.2,42.6,51.0,45.2,40.0,91,67,39,30.07,29.90,10,4,0,0.00
2012-5-23,78.4,62.2,44.7,56.0,49.9,43.0,96,68,35,29.93,29.77,10,2,0,0.00
2012-5-24,84.4,70.6,59.3,62.0,57.8,53.0,88,67,38,29.82,29.68,18,4,0,0.01
2012-5-27,79.2,72.6,61.1,67.0,62.7,57.0,86,72,63,30.05,29.83,16,9,0,0.00
2012-5-28,88.6,77.4,62.9,69.0,63.5,60.0,90,64,43,29.83,29.62,20,6,0,0.03
2012-5-29,75.2,67.4,56.2,63.0,54.6,46.0,96,67,38,29.79,29.65,15,7,0,0.16
2012-5-30,64.1,56.2,46.9,54.0,47.7,39.0,92,74,59,29.94,29.78,15,5,0,0.00
2012-5-31,56.9,49.6,42.5,49.0,42.9,39.0,93,79,61,30.02,29.89,10,4,0,0.08
2012-6-1,51.3,48.0,44.7,50.0,46.2,43.0,96,93,87,29.89,29.66,13,8,0,0.18
2012-6-2,69.3,55.7,46.3,53.0,48.7,44.0,94,79,50,29.72,29.62,21,9,0,0.08
2012-6-3,74.7,64.1,52.9,55.0,51.1,48.0,84,65,44,29.78,29.68,22,8,0,0.01
2012-6-4,73.9,63.1,52.5,55.0,51.5,48.0,88,68,44,29.92,29.77,8,4,0,0.00
2012-6-5,69.5,59.9,49.8,53.0,50.0,47.0,91,72,48,30.03,29.92,13,5,0,0.00
2012-6-6,78.2,63.2,47.1,55.0,50.7,45.0,99,67,35,30.07,30.00,9,2,0,0.00
2012-6-7,78.7,66.7,50.7,55.0,51.1,48.0,93,61,38,30.09,30.02,14,5,0,0.00
2012-6-8,80.3,67.7,48.3,59.0,52.6,45.0,90,61,41,30.03,29.86,15,6,0,0.00
2012-6-9,83.9,73.0,60.0,58.0,54.9,52.0,86,55,35,29.89,29.82,18,6,0,0.00
2012-6-10,89.0,73.9,54.9,64.0,59.0,53.0,94,63,37,29.96,29.87,11,3,0,0.00
2012-6-11,83.5,76.4,65.7,69.0,64.5,58.0,84,67,57,29.88,29.73,12,3,0,0.00
2012-6-12,73.3,65.0,48.4,68.0,51.1,45.0,89,62,47,30.09,29.74,19,8,0,0.00
2012-6-13,71.5,59.2,43.8,46.0,43.9,41.0,93,61,34,30.22,30.10,8,4,0,0.00
2012-6-14,80.6,66.3,52.5,52.0,45.7,41.0,71,50,25,30.20,30.05,13,4,0,0.00
2012-6-15,89.5,74.1,58.5,63.0,54.1,48.0,75,52,30,30.11,30.03,11,2,0,0.00
2012-6-16,88.4,74.5,62.4,70.0,62.7,54.0,92,69,45,30.07,29.83,13,3,0,0.10
2012-6-17,77.4,70.1,61.5,67.0,61.9,53.0,97,78,43,29.86,29.77,24,6,0,0.15
2012-6-18,87.9,72.7,59.6,76.0,64.8,57.0,96,78,51,29.86,29.63,27,6,0,0.26
2012-6-19,88.6,81.5,73.9,73.0,68.5,64.0,82,65,54,29.92,29.75,19,9,0,0.00
2012-6-20,88.8,80.3,69.6,71.0,67.0,63.0,83,65,51,29.98,29.82,17,6,0,0.00
2012-6-21,77.8,72.6,63.1,68.0,64.0,60.0,90,75,64,29.90,29.79,17,6,0,0.00
2012-6-22,78.0,68.4,58.7,62.0,57.9,53.0,95,72,47,29.96,29.90,13,5,0,0.01
2012-6-23,80.3,68.2,53.7,62.0,56.6,52.0,95,70,41,30.03,29.96,8,2,0,0.00
2012-6-24,81.5,71.2,58.8,65.0,61.4,57.0,95,73,50,30.00,29.88,17,4,0,0.00
2012-6-25,75.1,64.0,50.2,59.0,48.8,45.0,88,61,39,30.07,29.95,12,5,0,0.00
2012-6-26,79.0,65.5,49.0,56.0,50.2,45.0,88,60,37,30.08,29.93,12,2,0,0.00
2012-6-27,86.5,70.1,50.8,60.0,53.6,49.0,96,61,28,29.97,29.75,18,4,0,0.00
2012-6-28,91.3,78.7,65.6,77.0,67.0,57.0,82,68,61,29.79,29.67,16,4,0,0.00
2012-6-29,84.4,75.6,62.5,71.0,62.2,56.0,94,66,38,29.85,29.73,15,4,0,0.00
2012-6-30,83.8,73.9,62.0,70.0,64.4,59.0,94,74,52,29.82,29.74,13,6,0,0.00
2012-7-1,87.0,75.7,59.8,67.0,62.2,58.0,96,66,42,29.94,29.82,10,2,0,0.00
2012-7-2,94.2,77.7,59.9,70.0,63.0,58.0,93,64,31,29.98,29.86,10,2,0,0.00
2012-7-3,87.3,79.7,69.7,76.0,71.9,67.0,95,78,60,29.87,29.75,14,4,0,0.25
2012-7-4,93.5,83.2,73.4,79.0,74.2,70.0,92,75,57,29.81,29.75,13,5,0,0.00
2012-7-5,94.8,84.1,73.3,76.0,71.7,67.0,91,68,47,29.87,29.80,21,5,0,0.00
2012-7-6,98.9,84.8,70.3,77.0,72.6,69.0,95,70,41,29.91,29.84,11,2,0,0.00
2012-7-7,92.7,82.9,74.2,77.0,73.2,63.0,92,73,58,29.96,29.83,8,4,0,0.00
2012-7-8,83.1,74.3,63.7,64.0,60.4,56.0,89,64,41,30.04,29.96,13,4,0,0.00
2012-7-9,84.2,73.0,59.7,66.0,60.2,56.0,93,67,41,30.02,29.96,10,3,0,0.00
2012-7-10,83.7,70.9,56.9,59.0,56.0,52.0,91,63,34,30.11,30.02,10,3,0,0.00
2012-7-11,86.3,72.5,56.5,61.0,56.3,53.0,93,61,32,30.15,30.06,7,2,0,0.00
2012-7-12,89.1,74.4,54.8,61.0,55.2,53.0,93,57,30,30.11,30.03,6,2,0,0.00
2012-7-13,91.0,72.8,59.9,66.0,60.3,54.0,89,68,36,30.06,29.99,7,1,0,0.00
2012-7-14,91.0,80.3,70.1,71.0,65.4,62.0,79,62,43,30.03,29.91,14,3,0,0.00
2012-7-15,86.6,77.4,68.0,73.0,68.6,65.0,95,75,56,29.97,29.91,15,5,0,0.00
2012-7-16,92.6,83.4,65.4,72.0,67.7,63.0,95,61,46,29.97,29.77,16,6,0,0.00
2012-7-17,93.8,83.4,73.2,74.0,69.5,64.0,84,64,46,29.82,29.73,20,7,0,0.00
2012-7-18,87.8,77.0,70.5,73.0,70.2,65.0,94,80,59,29.93,29.79,8,4,0,0.03
2012-7-19,75.6,67.9,63.1,70.0,66.5,59.0,97,95,83,29.97,29.83,17,5,0,2.29
2012-7-20,80.8,70.2,59.7,64.0,60.7,56.0,94,74,44,30.08,29.98,12,5,0,0.00
2012-7-21,81.3,70.9,59.4,68.0,63.2,58.0,95,78,58,30.07,29.96,13,4,0,0.00
2012-7-22,86.4,76.2,66.1,73.0,67.5,62.0,94,75,55,30.04,29.96,12,4,0,0.00
2012-7-23,89.9,81.4,72.3,75.0,71.0,68.0,88,72,54,29.96,29.78,18,6,0,0.06
2012-7-24,85.3,76.9,66.9,72.0,63.2,57.0,88,65,39,29.94,29.81,10,4,0,0.00
2012-7-25,90.2,75.9,62.6,76.0,65.0,57.0,87,70,54,29.91,29.51,14,4,0,0.00
2012-7-26,84.1,75.0,67.6,73.0,69.6,65.0,96,84,62,29.71,29.55,14,5,0,0.42
2012-7-27,79.3,68.9,63.9,71.0,65.8,61.0,98,90,72,29.94,29.70,11,3,0,0.79
2012-7-28,81.1,69.6,58.6,64.0,60.2,57.0,95,75,45,30.09,29.95,11,3,0,0.01
2012-7-29,83.4,69.2,53.8,67.0,60.1,52.0,97,75,41,30.09,29.97,8,2,0,0.00
2012-7-30,86.7,73.7,59.6,67.0,63.2,58.0,97,73,47,29.98,29.80,10,2,0,0.00
2012-7-31,81.4,72.5,62.5,71.0,65.8,61.0,96,80,62,29.91,29.80,22,5,0,0.82
2012-8-1,81.5,69.0,55.5,67.0,61.2,54.0,98,78,49,29.94,29.80,9,2,0,0.00
2012-8-2,84.0,74.4,64.4,74.0,69.0,61.0,94,83,72,29.85,29.79,9,3,0,0.26
2012-8-3,89.5,78.4,66.2,75.0,70.4,65.0,97,78,52,29.88,29.83,8,2,0,0.00
2012-8-4,91.0,78.1,67.2,74.0,70.5,66.0,96,80,51,29.89,29.73,8,2,0,0.02
2012-8-5,75.6,70.9,56.0,73.0,63.3,54.0,96,78,56,30.11,29.77,20,7,0,0.00
2012-8-6,78.4,66.1,51.0,63.0,56.7,50.0,97,75,44,30.14,29.98,12,3,0,0.01
2012-8-7,84.0,70.6,54.6,68.0,60.5,53.0,95,73,46,29.98,29.88,14,4,0,0.00
2012-8-8,80.6,71.0,60.9,66.0,60.0,57.0,87,70,48,29.99,29.92,8,4,0,0.00
2012-8-9,66.6,63.5,59.6,64.0,60.9,57.0,95,91,72,29.94,29.84,16,4,0,0.23
2012-8-10,59.6,57.9,56.2,58.0,56.6,54.0,96,95,92,29.85,29.77,19,8,0,1.04
2012-8-11,74.5,65.7,58.7,62.0,58.2,55.0,95,78,59,29.94,29.80,18,7,0,0.01
2012-8-12,75.2,64.5,54.3,62.0,57.4,52.0,94,79,54,30.00,29.93,9,3,0,0.00
2012-8-13,68.3,63.7,60.7,64.0,60.7,59.0,96,90,79,29.96,29.92,4,0,0,0.09
2012-8-14,75.1,65.1,52.8,65.0,60.9,52.0,98,87,67,29.93,29.87,9,2,0,0.01
2012-8-15,80.9,67.4,56.9,68.0,60.7,56.0,98,82,51,29.93,29.87,8,1,0,0.01
2012-8-16,75.4,66.7,61.7,69.0,63.4,59.0,96,89,73,29.89,29.69,16,4,0,0.35
2012-8-17,69.4,62.2,51.6,59.0,55.0,49.0,93,79,59,29.98,29.82,15,6,0,0.00
2012-8-18,71.9,58.6,45.1,59.0,52.1,44.0,98,81,53,30.02,29.93,13,2,0,0.00
2012-8-19,73.7,59.3,47.3,61.0,54.7,46.0,98,86,56,29.95,29.88,9,1,0,0.22
2012-8-20,73.6,61.8,48.7,58.0,52.6,48.0,98,75,46,29.97,29.92,7,1,0,0.01
2012-8-21,75.4,61.9,46.9,61.0,53.6,46.0,98,77,48,30.07,29.98,11,2,0,0.00
2012-8-22,78.2,63.7,49.5,64.0,55.6,48.0,97,78,47,30.12,30.04,11,2,0,0.01
2012-8-23,84.7,67.9,51.9,68.0,58.3,51.0,97,75,41,30.10,30.02,10,2,0,0.00
2012-8-24,88.8,74.2,60.7,67.0,62.3,58.0,92,69,43,30.05,29.97,7,1,0,0.00
2012-8-25,90.1,73.3,57.1,69.0,62.9,56.0,97,73,42,30.04,29.98,6,1,0,0.00
2012-8-26,85.1,72.5,62.4,70.0,66.3,60.0,97,82,57,30.03,29.95,11,2,0,0.27
2012-8-27,82.3,73.0,62.5,71.0,65.1,55.0,98,79,44,30.02,29.94,12,3,0,0.00
2012-8-28,78.4,66.7,57.1,61.0,57.7,55.0,94,75,51,30.12,30.01,11,3,0,0.00
2012-8-29,80.7,66.7,53.1,63.0,57.6,51.0,96,75,48,30.10,29.99,6,1,0,0.00
2012-8-30,83.8,68.5,53.0,65.0,58.6,52.0,97,74,45,30.04,29.90,13,3,0,0.00
2012-8-31,84.5,74.4,62.5,69.0,63.9,58.0,90,71,55,30.04,29.92,19,6,0,0.00
2012-9-1,78.3,69.2,60.5,63.0,57.8,54.0,81,68,55,30.09,30.00,9,4,0,0.00
2012-9-2,82.6,72.0,63.5,66.0,62.0,59.0,88,72,47,30.01,29.90,14,7,0,0.00
2012-9-3,88.3,73.4,60.4,72.0,65.7,58.0,93,78,54,29.94,29.83,8,3,0,0.00
2012-9-4,84.6,73.5,66.0,72.0,68.1,65.0,97,84,61,29.87,29.79,6,1,0,0.16
2012-9-5,83.7,72.1,64.2,71.0,66.4,62.0,97,84,51,29.84,29.70,13,3,0,0.03
2012-9-6,81.3,69.9,58.3,66.0,61.8,55.0,97,78,48,29.90,29.78,14,2,0,0.01
2012-9-7,73.1,61.4,54.6,62.0,57.0,52.0,95,86,64,29.89,29.72,18,2,0,0.02
2012-9-8,68.5,58.0,49.3,56.0,51.8,47.0,97,82,54,29.82,29.72,16,6,0,0.01
2012-9-9,71.1,59.3,48.4,56.0,50.3,46.0,97,75,41,30.10,29.82,11,3,0,0.00
2012-9-10,73.1,58.0,42.2,54.0,48.8,41.0,97,74,48,30.21,30.10,8,2,0,0.00
2012-9-11,78.3,62.3,45.7,60.0,53.3,44.0,95,75,50,30.14,30.05,18,4,0,0.00
2012-9-12,83.1,67.2,55.3,64.0,57.1,52.0,92,72,43,30.13,30.07,15,4,0,0.00
2012-9-13,71.2,62.0,53.3,64.0,55.9,52.0,95,81,62,30.29,30.10,11,4,0,0.06
2012-9-14,70.7,57.0,44.0,56.0,48.1,41.0,97,76,39,30.30,30.23,16,4,0,0.01
2012-9-15,74.3,56.0,39.0,50.0,44.6,38.0,99,71,37,30.32,30.12,8,2,0,0.00
2012-9-16,75.5,60.4,46.4,59.0,49.1,44.0,93,70,36,30.12,29.97,15,4,0,0.00
2012-9-17,75.8,60.6,45.3,62.0,53.5,44.0,96,80,53,29.96,29.68,18,4,0,0.08
2012-9-18,58.9,52.0,43.6,58.0,46.2,34.0,97,82,44,29.95,29.68,20,6,0,0.02
2012-9-19,66.1,52.9,33.3,44.0,39.3,32.0,96,65,40,30.07,29.83,15,4,0,0.00
2012-9-20,65.3,57.4,46.2,52.0,46.3,41.0,96,69,44,29.86,29.77,18,6,0,0.03
2012-9-21,65.1,51.4,42.8,52.0,46.6,41.0,96,85,46,29.88,29.74,15,3,0,0.02
2012-9-22,57.6,48.9,40.4,48.0,44.3,39.0,96,85,59,30.09,29.71,16,4,0,0.17
2012-9-23,46.2,45.3,44.3,44.0,43.6,43.0,94,93,92,30.08,30.08,0,0,0,0.00
2012-9-25,72.4,60.3,52.3,56.0,47.7,-99.9,94,70,53,29.84,29.79,15,-25,0,0.00
2012-9-26,67.6,57.6,48.1,54.0,48.2,44.0,95,74,44,30.13,29.85,14,4,0,0.00
2012-9-27,64.4,54.4,46.3,49.0,46.6,43.0,88,76,58,30.24,30.13,13,5,0,0.00
2012-9-28,68.1,55.9,43.1,50.0,44.3,38.0,96,69,35,30.18,30.07,9,2,0,0.00
2012-9-29,72.8,56.1,39.3,53.0,44.1,37.0,94,68,37,30.10,29.93,11,4,0,0.00
2012-9-30,66.1,53.1,41.1,49.0,43.6,38.0,95,74,41,29.98,29.92,17,4,0,0.00
2012-10-1,66.5,51.3,34.6,51.0,42.8,33.0,97,76,44,29.94,29.84,7,1,0,0.00
2012-10-2,72.0,57.8,47.5,49.0,46.5,44.0,89,69,39,29.91,29.82,9,3,0,0.00
2012-10-3,60.5,57.4,54.5,59.0,54.2,50.0,96,89,75,29.99,29.89,7,1,0,0.12
2012-10-4,58.0,58.0,58.0,57.0,57.0,57.0,97,97,96,29.99,29.98,1,0,0,0.00
2012-10-6,47.4,42.2,41.3,38.0,31.6,-99.9,85,72,59,30.12,30.01,15,-24,0,0.00
2012-10-7,46.2,40.8,28.8,38.0,35.0,27.0,94,81,58,30.14,30.09,10,2,0,0.01
2012-10-8,54.8,42.5,28.1,37.0,31.5,26.0,95,69,40,30.15,30.03,22,4,0,0.00
2012-10-9,63.5,52.2,43.1,47.0,38.6,32.0,92,61,45,30.02,29.75,21,7,0,0.21
2012-10-10,43.6,40.5,35.6,40.0,34.8,28.0,96,81,57,30.14,29.82,17,6,0,0.18
2012-10-11,57.2,43.4,30.1,44.0,37.7,28.0,93,82,58,30.20,30.01,25,6,0,0.08
2012-10-12,51.0,38.3,29.9,38.0,29.6,24.0,93,74,36,30.47,30.23,7,2,0,0.00
2012-10-13,62.7,44.3,31.1,62.0,41.5,27.0,98,90,73,30.35,29.81,16,4,0,0.83
2012-10-14,68.2,61.4,48.9,63.0,59.3,47.0,97,93,76,29.81,29.37,23,8,0,0.86
2012-10-15,48.7,44.7,34.7,47.0,41.6,33.0,94,88,80,29.96,29.55,20,7,0,0.02
2012-10-16,60.4,44.7,29.6,46.0,38.6,29.0,97,81,56,29.97,29.63,10,2,0,0.00
2012-10-17,69.8,60.5,53.4,56.0,52.0,45.0,92,74,55,29.63,29.39,16,4,0,0.18
2012-10-18,58.6,51.1,44.2,55.0,47.1,40.0,96,86,70,29.56,29.22,21,8,0,0.64
2012-10-19,49.8,45.1,39.2,46.0,42.7,38.0,97,91,81,29.56,29.49,12,4,0,0.25
2012-10-20,54.4,45.4,36.8,47.0,42.4,35.0,97,89,70,29.89,29.55,12,4,0,0.01
2012-10-21,61.4,45.9,32.2,50.0,41.1,31.0,98,85,55,30.07,29.89,12,2,0,0.01
2012-10-22,67.8,54.4,39.4,60.0,50.9,37.0,97,88,75,30.04,29.89,8,1,0,0.65
2012-10-23,63.8,59.8,57.2,62.0,59.0,57.0,98,97,90,29.95,29.86,8,2,0,0.49
2012-10-24,73.2,64.5,54.3,65.0,61.1,54.0,98,89,76,29.96,29.87,7,2,0,0.01
2012-10-25,76.5,67.8,47.7,63.0,59.6,46.0,93,76,61,29.87,29.67,23,9,0,0.22
2012-10-26,48.6,42.6,36.5,45.0,35.1,31.0,94,76,54,30.30,29.88,17,8,0,0.06
2012-10-27,49.1,38.6,29.8,35.0,31.4,28.0,94,77,51,30.30,30.21,11,5,0,0.00
2012-10-28,48.1,39.2,33.1,31.0,27.0,-99.9,86,66,45,30.29,30.21,13,-11,0,0.00
2012-10-29,46.1,38.9,31.7,31.0,28.1,25.0,87,67,49,30.24,29.94,21,11,0,0.00
2012-10-30,40.3,38.7,37.3,37.0,32.7,25.0,92,80,57,29.93,29.64,29,14,0,0.08
2012-10-31,41.1,39.0,37.1,38.0,36.1,34.0,93,89,84,29.75,29.64,17,11,0,0.05
2012-11-1,47.2,40.3,36.4,36.0,31.9,26.0,88,73,48,29.84,29.74,18,8,0,0.00
2012-11-2,43.4,38.0,30.8,35.0,32.0,29.0,91,79,64,30.13,29.83,15,7,0,0.00
2012-11-3,42.4,35.7,29.3,32.0,30.4,27.0,95,81,66,30.23,30.13,8,3,0,0.00
2012-11-4,42.0,34.2,26.3,31.0,27.4,24.0,91,77,59,30.24,30.18,8,3,0,0.00
2012-11-5,37.8,31.6,25.1,30.0,26.9,23.0,92,83,70,30.25,30.16,8,3,0,0.00
2012-11-6,43.5,36.5,29.4,32.0,29.3,25.0,89,76,62,30.16,29.95,15,5,0,0.00
2012-11-7,46.2,36.2,24.7,32.0,28.8,23.0,92,76,54,30.17,29.97,12,4,0,0.00
2012-11-8,43.8,34.1,22.3,38.0,31.1,21.0,96,88,74,30.22,30.13,8,2,0,0.00
2012-11-9,54.0,45.1,34.0,43.0,38.7,32.0,94,79,63,30.15,30.04,8,3,0,0.00
2012-11-10,63.1,54.2,46.7,51.0,46.5,41.0,85,76,61,30.07,29.88,19,6,0,0.00
2012-11-11,69.2,61.5,51.6,55.0,50.6,47.0,95,68,59,29.98,29.78,25,12,0,0.15
2012-11-12,51.5,37.1,28.9,50.0,33.0,22.0,96,85,70,30.25,29.82,18,11,0,0.22
2012-11-13,36.8,29.3,21.1,25.0,21.9,19.0,94,75,56,30.53,30.26,14,3,0,0.00
2012-11-14,41.0,31.5,24.3,28.0,24.7,21.0,92,77,55,30.58,30.42,8,3,0,0.00
2012-11-15,43.5,31.9,23.0,34.0,27.2,21.0,95,84,65,30.44,30.35,9,2,0,0.00
2012-11-16,51.0,34.3,24.0,41.0,30.3,22.0,96,86,64,30.50,30.39,8,2,0,0.01
2012-11-17,52.4,35.4,23.4,39.0,29.0,22.0,97,80,46,30.59,30.51,11,2,0,0.00
2012-11-18,55.0,40.3,29.7,38.0,31.9,26.0,92,74,43,30.52,30.38,9,3,0,0.00
2012-11-19,53.5,42.3,29.9,38.0,32.6,-99.9,90,72,55,30.38,30.15,6,-10,0,0.00
2012-11-20,50.9,43.1,31.3,43.0,39.2,29.0,95,86,72,30.16,30.07,6,0,0,0.02
2012-11-21,50.4,43.1,31.3,47.0,41.3,30.0,97,93,87,30.23,30.09,12,2,0,0.01
2012-11-22,61.4,51.1,42.7,50.0,45.2,41.0,96,82,55,30.09,29.69,26,9,0,0.13
2012-11-23,55.1,36.6,30.0,49.0,30.0,23.0,90,77,68,30.08,29.66,28,16,0,0.00
2012-11-24,30.9,29.4,28.6,24.0,22.1,20.0,80,74,67,30.18,30.01,15,7,0,0.00
2012-11-25,36.0,30.7,26.8,30.0,25.6,22.0,89,82,76,30.02,29.83,14,6,0,0.00
2012-11-26,31.9,30.1,27.0,27.0,21.7,18.0,83,71,64,30.34,30.02,11,6,0,0.00
2012-11-27,32.8,26.1,17.4,23.0,19.9,14.0,87,78,65,30.38,30.22,13,4,0,0.00
2012-11-28,36.2,30.0,22.2,28.0,25.0,19.0,93,82,64,30.32,30.20,16,5,0,0.00
2012-11-29,47.2,34.7,26.1,37.0,29.7,24.0,92,83,61,30.27,30.15,16,4,0,0.01
2012-11-30,37.9,36.0,34.5,35.0,33.0,30.0,94,89,79,30.25,30.15,18,9,0,0.00
2012-12-1,57.2,42.0,33.8,53.0,39.2,32.0,96,90,82,30.22,29.88,22,9,0,0.05
2012-12-2,56.3,48.2,31.2,52.0,45.5,30.0,96,90,80,30.08,29.85,24,7,0,0.23
2012-12-3,63.5,51.3,33.4,59.0,49.9,32.0,100,95,80,30.09,29.77,25,7,0,0.01
2012-12-4,62.3,46.7,33.9,57.0,39.9,26.0,94,78,60,30.17,29.79,22,9,0,0.07
2012-12-5,36.6,30.4,25.4,25.0,22.6,21.0,87,73,59,30.43,30.18,16,5,0,0.00
2012-12-6,39.2,33.7,27.0,35.0,27.8,23.0,85,79,71,30.31,29.92,12,6,0,0.00
2012-12-7,44.5,40.5,38.2,39.0,36.5,35.0,94,86,73,29.96,29.88,7,2,0,0.00
2012-12-8,39.8,32.4,26.1,37.0,30.7,25.0,96,93,88,30.18,29.86,13,4,0,0.17
2012-12-9,32.7,30.5,28.9,31.0,28.5,27.0,96,91,87,30.18,29.69,19,6,0,0.00
2012-12-10,32.9,30.0,19.7,30.0,27.3,17.0,97,90,79,29.90,29.62,0,0,0,0.15
2012-12-11,33.7,26.7,16.3,29.0,22.6,14.0,94,85,71,30.09,29.91,18,4,0,0.00
2012-12-12,42.1,35.6,31.1,34.0,29.1,25.0,93,78,61,30.29,30.09,17,6,0,0.09
2012-12-13,46.0,36.7,29.4,33.0,27.3,25.0,84,70,44,30.29,30.09,17,8,0,0.00
2012-12-14,46.3,35.4,25.3,37.0,31.4,24.0,96,86,65,30.24,30.13,7,2,0,0.00
2012-12-15,45.2,37.2,30.8,44.0,34.7,29.0,97,91,79,30.13,29.59,15,7,0,0.45
2012-12-16,46.9,43.9,38.5,46.0,42.8,37.0,97,96,91,29.66,29.55,14,8,0,0.12
2012-12-17,40.1,36.3,28.5,37.0,33.5,27.0,95,89,75,29.71,29.65,13,4,0,0.00
2012-12-18,38.2,32.2,25.4,32.0,29.4,23.0,96,89,77,29.78,29.69,7,3,0,0.01
2012-12-19,37.8,33.8,28.8,36.0,32.2,28.0,98,94,85,30.10,29.75,8,2,0,0.07
2012-12-20,44.2,38.2,32.8,43.0,36.1,32.0,96,92,82,29.99,29.08,31,13,0,0.93
2012-12-21,38.0,32.1,29.4,35.0,28.8,26.0,95,87,79,30.03,29.15,32,18,0,0.03
2012-12-22,33.6,28.7,24.4,26.0,24.0,22.0,92,82,72,30.12,29.98,20,8,0,0.00
2012-12-23,30.2,25.6,20.0,26.0,21.8,18.0,99,86,76,30.07,29.90,11,4,0,0.00
2012-12-24,27.9,23.6,19.7,23.0,19.7,17.0,90,85,80,30.07,29.89,14,6,0,0.00
2012-12-25,30.1,24.4,16.7,24.0,19.5,15.0,94,82,69,30.37,30.08,10,4,0,0.00
2012-12-26,28.0,24.7,18.5,23.0,20.2,16.0,92,83,77,30.32,30.02,19,10,0,0.00
2012-12-27,31.9,24.0,18.9,24.0,19.5,16.0,90,83,67,30.18,30.06,13,4,0,0.00
2012-12-28,28.2,23.4,12.3,26.0,21.1,10.0,94,90,83,30.18,29.96,7,4,0,0.00
2012-12-29,29.6,25.6,19.0,25.0,22.9,16.0,94,89,81,30.11,29.89,10,4,0,0.02
2012-12-30,27.7,26.1,22.7,26.0,23.0,19.0,94,87,83,30.28,30.11,14,7,0,0.00
2012-12-31,35.7,28.9,24.3,30.0,24.4,16.0,92,83,72,30.11,29.93,18,9,0,0.00
2013-1-1,24.0,21.1,18.8,17.0,14.8,12.0,81,77,66,30.19,30.07,11,6,0,0.00